SCP
0 0 0 -0 -0 -0 -0 -0 -0 -0 -0 -0 -0 -0 -0 -0 -0 -0 -0 -0 -0 -0 -0 0 -0 -0 0 0 0 -0 -0 -0 0 0 0 -0 -0 -0 -0 0 0 0 0
0 0 0 0 0 0 0 0 0 -0 0 -0 -0 -0 -0 0 -0 -0 -0 0 -0 0 0 0 0 0 0 0 0 -0 0 0 0 0 0 0 0 0 0 0 0 0 0
0 0 0 0 0 0 0 0 0 -0 -0 0 0 0 0 -0 0 -0 -0 -0 -0 0 0 0 -0 -0 0 0 0 0 0 0 0 0 0 0 0 0 0 0 0 0 0
-0 0 -0 0 0 0 0 1 0 -0 -0 -0 -0 -0 0 -0 -0 0 0 -0 -0 0 -0 0 0 0 0 0 0 0 0 0 0 0 0 0 0 0 0 0 0 0 0
-0 -0 -0 -0 0 0 0 1 1 0 0 -0 0 0 -0 0 -0 0 0 0 0 0 0 0 0 0 0 0 0 0 0 0 0 0 0 0 0 0 0 0 0 0 0
-0 0 0 0 0 0 0 0 1 1 0 0 -0 -0 -0 -0 0 0 0 0 0 0 0 0 1 1 0 0 0 0 0 0 0 0 0 0 0 0 0 0 0 0 0
0 0 0 0 0 0 0 -0 -0 0 0 0 0 -0 -0 -0 0 0 0 0 0 0 1 1 0 0 0 0 0 0 0 0 0 0 0 0 0 0 0 0 0 0 0
0 0 0 0 0 0 0 0 -1 -0 0 0 0 0 -0 -0 -0 -0 -0 -0 -0 0 0 0 0 0 0 0 0 0 0 0 0 0 0 0 0 0 0 0 0 0 0
-0 -0 0 0 0 0 0 1 1 0 -0 -0 0 0 0 0 0 0 0 0 0 -0 0 1 1 0 0 0 0 -0 -0 -0 0 0 0 0 0 0 0 0 0 0 0
-0 0 -0 -0 -0 -0 -0 -0 -0 -0 -0 -0 -0 -0 0 0 0 0 0 0 0 0 0 1 1 0 0 0 0 -0 0 0 -0 0 0 0 0 0 0 0 0 0 0
-0 0 -0 -0 -0 -0 -0 -0 0 -0 -0 -0 -0 -0 -0 -0 0 0 0 1 1 1 1 1 1 1 1 0 0 0 0 0 0 0 0 0 0 0 0 0 0 0 0
-0 -0 0 -0 -0 -0 -0 -0 0 0 0 0 0 0 0 0 0 1 1 1 2 2 2 1 2 1 1 1 0 0 0 0 0 0 0 0 0 0 0 0 0 0 0
0 0 -0 0 0 0 0 0 -0 0 0 0 1 1 1 1 1 1 2 3 3 2 2 2 1 1 1 1 1 0 0 0 0 0 0 0 0 0 0 0 0 0 0
0 0 0 0 1 1 2 1 1 1 1 1 1 2 2 1 2 2 2 3 7 5 4 2 2 2 2 1 1 1 1 1 0 1 1 0 0 0 0 0 0 0 0
-0 -0 1 2 2 2 2 2 2 3 3 3 3 3 2 4 6 4 4 7 8 7 3 0 0 1 2 2 1 1 1 1 0 1 1 0 0 0 0 0 0 0 0
0 0 1 1 1 1 1 2 3 3 4 5 5 4 4 3 3 2 3 3 3 2 0 0 0 0 2 0 0 0 0 1 1 1 1 0 0 0 0 0 0 0 0
0 0 0 1 1 1 2 2 2 3 3 2 2 1 1 1 1 1 1 1 2 1 1 1 1 1 2 1 0 0 0 0 0 1 1 0 0 0 0 0 0 0 0
0 0 0 1 1 1 1 1 1 1 1 1 1 1 1 1 1 1 1 0 1 1 0 0 0 1 1 0 0 0 0 1 1 1 0 0 0 0 0 0 0 0 0
0 0 0 0 1 1 1 1 0 0 1 1 1 1 1 1 1 0 0 0 0 0 0 0 0 0 0 0 0 0 0 0 0 1 0 0 0 0 0 0 0 0 0
0 0 0 0 0 0 0 0 0 0 0 0 0 1 1 0 0 0 0 0 0 0 0 0 0 0 0 0 0 0 0 0 0 0 0 0 0 0 0 0 0 0 0
0 0 0 0 0 0 0 0 0 0 0 0 0 0 0 0 0 0 0 0 0 0 0 0 0 0 0 0 0 0 0 0 0 0 0 0 0 0 0 0 0 0 0
0 0 0 1 1 1 1 0 0 0 0 0 0 0 0 0 0 0 0 0 0 0 0 0 0 0 0 0 0 0 0 0 0 0 0 0 0 0 0 0 0 0 0
1 0 0 1 0 1 0 0 0 0 0 0 0 0 0 0 0 0 0 0 0 -0 0 0 -0 -0 0 0 0 0 0 0 0 0 0 0 0 0 0 0 0 0 0
1 1 1 0 1 1 0 0 0 1 1 0 0 0 0 0 0 0 0 0 0 0 -0 -0 -0 -0 -0 -0 -0 0 0 0 0 0 0 0 0 0 0 -0 0 0 0
1 1 0 0 0 0 0 0 0 0 0 0 0 0 0 0 0 0 0 0 0 0 0 0 0 0 0 0 0 0 0 0 0 0 0 0 0 -0 0 0 0 0 0
1 1 0 0 0 0 0 0 0 0 0 0 0 0 0 0 0 0 0 0 0 0 0 0 0 0 0 0 0 0 0 0 0 0 0 0 0 0 0 0 0 0 0
Wind_Speed_500mb
28 28 28 28 25 26 26 27 26 26 23 10 22 13 10 14 11 7 11 12 12 25 12 16 22 10 14 13 15 18 16 21 23 26 20 24 33 41 27 18 16 11 8
37 37 29 33 33 31 29 30 29 25 27 15 17 20 18 11 17 6 19 25 17 12 19 18 7 13 25 23 20 18 20 24 15 25 25 25 24 31 25 18 20 16 12
31 36 35 35 38 41 38 34 34 29 27 23 18 16 13 8 15 18 19 10 13 17 15 19 14 21 16 10 18 12 15 19 14 10 18 13 12 21 2 12 4 13 8
38 34 38 35 38 43 40 40 38 40 28 31 17 11 12 13 16 13 17 12 13 10 11 17 17 18 12 11 16 15 18 17 10 8 23 24 23 12 11 3 11 19 11
47 41 32 42 31 43 45 45 42 39 34 28 29 24 23 13 9 14 16 17 22 22 14 14 16 21 12 16 23 21 21 16 10 19 16 20 17 17 18 19 22 9 8
33 44 38 31 32 33 40 44 42 38 42 35 39 30 22 24 17 18 19 17 16 19 18 15 22 24 18 14 15 19 25 8 20 21 11 11 9 9 11 19 20 11 16
18 24 26 35 29 30 32 39 40 39 45 46 38 39 33 30 32 29 26 18 19 22 25 27 14 13 17 22 25 26 14 11 7 14 16 6 7 12 13 17 20 16 5
23 23 17 31 33 33 35 38 40 40 44 49 44 34 32 31 28 26 18 21 21 16 16 15 8 16 22 24 17 10 7 11 10 10 12 13 5 9 7 13 16 14 11
24 23 20 26 31 34 37 40 42 37 39 42 50 44 37 30 28 29 32 30 29 33 31 23 36 23 25 21 15 4 6 22 14 10 15 14 4 12 10 8 8 11 15
26 20 24 26 30 32 36 37 42 40 31 40 39 46 46 42 35 39 37 29 23 23 29 37 32 27 24 20 14 9 16 21 17 5 24 18 20 13 6 9 9 10 13
23 20 25 24 25 30 37 39 39 36 33 34 43 36 38 37 35 33 44 39 43 41 34 35 36 30 27 22 17 17 21 20 16 23 20 18 20 22 16 16 11 12 18
24 21 19 20 20 20 27 28 29 28 27 30 29 43 40 37 39 44 33 43 44 40 43 44 37 31 31 26 22 19 20 23 18 17 18 14 7 13 16 14 14 22 26
17 23 21 16 13 16 16 25 25 27 30 29 35 35 40 42 44 41 47 37 42 42 41 39 36 25 34 30 29 25 26 27 21 17 22 16 20 20 18 23 20 9 11
18 8 29 25 10 10 8 9 7 13 23 24 30 37 39 39 40 40 42 45 43 41 45 38 37 39 39 37 34 33 31 31 25 25 27 21 24 21 21 17 14 13 18
29 31 33 28 21 11 8 5 10 12 12 8 21 22 29 34 36 40 39 46 47 40 26 28 49 51 41 46 39 36 33 32 29 27 29 27 27 26 23 15 19 21 18
31 31 30 29 20 16 12 9 4 3 13 19 28 27 26 26 31 35 42 35 37 44 50 66 51 54 40 44 41 41 33 32 30 32 29 26 28 32 27 24 24 26 26
29 27 24 21 21 15 13 5 5 8 13 16 17 25 26 25 28 35 37 34 34 38 38 45 58 52 45 50 54 51 49 34 35 31 28 21 21 31 25 16 14 13 16
27 24 21 20 19 20 12 11 15 5 4 6 7 9 12 16 19 21 21 25 28 28 38 51 57 62 74 70 58 51 57 50 41 34 32 32 24 10 10 13 11 10 18
27 26 23 23 24 23 23 26 23 23 20 20 16 16 19 23 24 26 31 34 37 38 42 49 54 58 57 52 50 54 56 51 51 35 36 31 21 29 26 29 32 24 13
29 28 25 24 25 25 24 25 22 21 23 22 26 24 19 18 26 36 39 38 30 34 37 37 37 47 49 46 47 55 63 57 42 35 30 17 16 28 22 18 11 9 5
32 29 27 26 26 23 21 17 19 24 21 21 21 21 20 20 23 38 44 36 25 24 26 26 25 22 30 32 33 45 41 33 41 32 35 23 17 5 7 6 9 13 6
29 25 28 28 24 18 11 19 23 16 15 15 15 16 13 18 28 39 46 51 52 52 45 41 39 38 32 25 15 4 22 24 19 27 20 20 15 11 5 7 7 4 6
29 25 26 25 19 17 12 20 20 14 11 12 15 15 20 15 25 31 29 36 46 44 41 39 41 41 38 25 9 5 6 9 20 20 25 20 25 31 31 23 15 13 15
28 25 22 24 22 17 15 20 16 15 13 15 16 18 21 25 22 21 33 38 34 32 35 35 32 31 31 30 20 12 8 4 3 3 5 1 8 15 23 27 28 28 22
27 23 22 22 19 16 19 14 14 15 8 8 15 13 17 25 26 27 29 30 30 31 26 26 28 27 28 28 25 20 16 11 9 9 13 21 24 26 27 29 31 28 24
28 25 23 22 21 14 14 14 11 13 9 14 11 8 6 10 9 17 17 25 22 19 19 20 23 25 25 23 20 18 18 18 22 25 27 29 30 24 28 28 26 17 21
Wind_Direction_500mb
184 181 185 176 173 170 170 175 171 188 172 195 185 213 195 200 183 191 194 209 225 253 261 260 250 278 295 298 250 266 271 253 246 288 310 296 274 259 225 224 226 270 278
175 185 193 192 185 186 192 186 185 204 164 166 211 211 190 213 213 232 194 229 208 226 250 260 261 266 262 267 285 285 279 277 266 280 298 299 300 302 202 228 186 239 235
196 181 199 200 190 195 195 207 192 218 171 185 191 212 163 181 158 199 253 251 204 227 245 284 266 262 276 258 287 295 299 302 269 287 295 306 311 340 58 142 217 205 242
186 200 194 202 204 198 197 208 220 210 202 179 192 191 175 194 211 226 247 234 266 237 233 264 286 295 282 266 280 289 281 268 308 295 283 271 280 305 339 215 218 231 255
192 190 201 195 203 198 199 204 224 225 201 204 188 216 203 223 245 225 252 232 250 275 267 269 280 289 276 274 282 281 287 275 290 298 274 286 296 268 273 289 273 267 336
195 188 186 178 186 191 191 200 216 230 201 208 190 199 214 213 217 227 236 241 270 294 293 277 264 281 297 291 271 277 280 311 247 262 294 291 347 345 337 328 324 309 329
164 155 172 167 179 180 185 197 218 228 216 211 205 210 210 227 224 229 240 246 265 254 262 285 301 299 298 277 269 271 286 251 249 290 248 275 336 329 326 313 319 339 306
153 138 156 171 177 184 189 195 218 225 220 215 218 223 226 235 243 245 250 243 263 283 255 271 260 281 268 274 287 296 76 296 256 265 255 216 44 246 274 306 298 312 278
96 125 153 171 180 188 194 196 217 232 222 217 216 221 229 228 225 231 248 253 247 227 234 240 268 253 262 268 274 202 230 244 241 220 296 220 170 298 245 244 281 279 295
132 148 158 170 180 190 198 198 213 228 222 211 227 224 230 239 226 224 231 247 241 246 235 238 257 265 263 271 278 194 272 265 225 217 247 256 200 222 282 227 229 259 271
131 155 158 163 174 186 197 201 210 218 215 213 218 231 236 236 251 243 224 235 235 243 237 238 254 253 263 267 270 230 238 256 239 211 253 257 227 193 190 223 208 223 243
133 135 135 153 162 178 194 201 210 216 223 227 223 231 237 235 239 252 250 239 247 242 245 244 245 253 260 262 267 249 226 260 242 227 211 238 278 238 226 222 251 245 249
132 135 133 120 147 167 198 204 204 223 232 229 232 236 237 244 244 252 253 243 247 247 251 250 246 251 253 268 266 259 226 244 227 225 239 218 224 248 208 233 233 199 225
114 77 112 113 115 77 142 210 190 234 229 236 237 238 244 245 249 255 251 259 240 248 249 250 245 244 252 258 255 258 245 236 229 217 237 231 229 243 242 252 252 250 244
90 67 66 75 73 52 30 330 272 275 243 277 253 268 252 251 250 250 267 248 246 239 238 312 284 257 248 255 253 247 245 236 216 233 234 239 240 239 249 243 222 233 246
79 76 71 68 66 68 56 63 86 209 228 231 231 240 245 239 245 248 246 257 258 254 227 251 247 257 249 256 250 247 245 242 226 215 236 247 258 257 271 267 252 253 262
95 90 82 75 77 71 95 85 158 202 223 242 267 273 276 287 289 282 289 279 274 268 259 248 246 244 257 266 255 235 237 232 236 226 224 233 261 271 260 271 288 316 288
102 93 85 80 72 69 56 63 68 73 307 306 306 313 320 322 322 324 323 314 310 295 276 263 255 262 279 281 267 243 234 227 222 224 224 228 232 243 251 272 279 322 310
104 99 96 86 80 75 71 65 65 63 57 56 47 28 17 14 1 344 336 327 318 302 282 271 275 279 279 279 263 245 221 223 221 215 214 221 238 245 245 249 251 242 222
106 104 99 93 84 75 73 63 57 49 47 43 51 40 39 10 349 347 341 332 339 336 326 314 298 281 281 280 274 254 226 216 214 220 210 211 236 263 261 278 247 211 154
108 108 103 95 91 81 74 80 64 56 51 61 42 28 36 8 0 18 16 10 2 358 8 359 348 335 311 293 282 213 178 170 173 172 178 172 176 173 221 200 242 240 254
112 107 103 101 101 80 61 70 66 69 52 38 16 11 20 51 18 27 38 44 42 43 47 43 41 45 40 51 148 212 317 228 202 185 145 145 150 125 74 32 347 19 69
120 116 109 96 82 81 77 67 68 60 61 35 29 42 45 69 56 25 42 34 30 39 48 49 52 54 59 64 39 357 10 241 233 215 203 216 214 221 257 249 246 293 300
123 120 119 105 105 102 69 79 72 67 46 65 43 31 62 67 54 56 50 50 59 49 44 44 46 47 49 58 67 61 50 35 79 38 66 6 260 262 279 283 279 280 277
130 132 122 113 105 108 103 80 50 55 97 101 90 50 39 35 21 34 40 36 39 43 40 42 39 37 36 36 41 39 41 30 353 334 315 307 297 292 288 291 287 276 266
132 130 121 116 106 93 82 70 90 90 71 68 56 76 25 83 5 345 17 25 20 20 16 15 11 16 8 3 355 344 334 329 322 308 299 301 299 304 303 300 290 257 260
Wind_Speed_850mb
28 28 28 28 25 26 26 27 26 26 23 10 22 13 10 14 11 7 11 12 12 25 12 16 22 10 14 13 15 18 16 21 23 26 20 24 33 41 27 18 16 11 8
37 37 29 33 33 31 29 30 29 25 27 15 17 20 18 11 17 6 19 25 17 12 19 18 7 13 25 23 20 18 20 24 15 25 25 25 24 31 25 18 20 16 12
31 36 35 35 38 41 38 34 34 29 27 23 18 16 13 8 15 18 19 10 13 17 15 19 14 21 16 10 18 12 15 19 14 10 18 13 12 21 2 12 4 13 8
38 34 38 35 38 43 40 40 38 40 28 31 17 11 12 13 16 13 17 12 13 10 11 17 17 18 12 11 16 15 18 17 10 8 23 24 23 12 11 3 11 19 11
47 41 32 42 31 43 45 45 42 39 34 28 29 24 23 13 9 14 16 17 22 22 14 14 16 21 12 16 23 21 21 16 10 19 16 20 17 17 18 19 22 9 8
33 44 38 31 32 33 40 44 42 38 42 35 39 30 22 24 17 18 19 17 16 19 18 15 22 24 18 14 15 19 25 8 20 21 11 11 9 9 11 19 20 11 16
18 24 26 35 29 30 32 39 40 39 45 46 38 39 33 30 32 29 26 18 19 22 25 27 14 13 17 22 25 26 14 11 7 14 16 6 7 12 13 17 20 16 5
23 23 17 31 33 33 35 38 40 40 44 49 44 34 32 31 28 26 18 21 21 16 16 15 8 16 22 24 17 10 7 11 10 10 12 13 5 9 7 13 16 14 11
24 23 20 26 31 34 37 40 42 37 39 42 50 44 37 30 28 29 32 30 29 33 31 23 36 23 25 21 15 4 6 22 14 10 15 14 4 12 10 8 8 11 15
26 20 24 26 30 32 36 37 42 40 31 40 39 46 46 42 35 39 37 29 23 23 29 37 32 27 24 20 14 9 16 21 17 5 24 18 20 13 6 9 9 10 13
23 20 25 24 25 30 37 39 39 36 33 34 43 36 38 37 35 33 44 39 43 41 34 35 36 30 27 22 17 17 21 20 16 23 20 18 20 22 16 16 11 12 18
24 21 19 20 20 20 27 28 29 28 27 30 29 43 40 37 39 44 33 43 44 40 43 44 37 31 31 26 22 19 20 23 18 17 18 14 7 13 16 14 14 22 26
17 23 21 16 13 16 16 25 25 27 30 29 35 35 40 42 44 41 47 37 42 42 41 39 36 25 34 30 29 25 26 27 21 17 22 16 20 20 18 23 20 9 11
18 8 29 25 10 10 8 9 7 13 23 24 30 37 39 39 40 40 42 45 43 41 45 38 37 39 39 37 34 33 31 31 25 25 27 21 24 21 21 17 14 13 18
29 31 33 28 21 11 8 5 10 12 12 8 21 22 29 34 36 40 39 46 47 40 26 28 49 51 41 46 39 36 33 32 29 27 29 27 27 26 23 15 19 21 18
31 31 30 29 20 16 12 9 4 3 13 19 28 27 26 26 31 35 42 35 37 44 50 66 51 54 40 44 41 41 33 32 30 32 29 26 28 32 27 24 24 26 26
29 27 24 21 21 15 13 5 5 8 13 16 17 25 26 25 28 35 37 34 34 38 38 45 58 52 45 50 54 51 49 34 35 31 28 21 21 31 25 16 14 13 16
27 24 21 20 19 20 12 11 15 5 4 6 7 9 12 16 19 21 21 25 28 28 38 51 57 62 74 70 58 51 57 50 41 34 32 32 24 10 10 13 11 10 18
27 26 23 23 24 23 23 26 23 23 20 20 16 16 19 23 24 26 31 34 37 38 42 49 54 58 57 52 50 54 56 51 51 35 36 31 21 29 26 29 32 24 13
29 28 25 24 25 25 24 25 22 21 23 22 26 24 19 18 26 36 39 38 30 34 37 37 37 47 49 46 47 55 63 57 42 35 30 17 16 28 22 18 11 9 5
32 29 27 26 26 23 21 17 19 24 21 21 21 21 20 20 23 38 44 36 25 24 26 26 25 22 30 32 33 45 41 33 41 32 35 23 17 5 7 6 9 13 6
29 25 28 28 24 18 11 19 23 16 15 15 15 16 13 18 28 39 46 51 52 52 45 41 39 38 32 25 15 4 22 24 19 27 20 20 15 11 5 7 7 4 6
29 25 26 25 19 17 12 20 20 14 11 12 15 15 20 15 25 31 29 36 46 44 41 39 41 41 38 25 9 5 6 9 20 20 25 20 25 31 31 23 15 13 15
28 25 22 24 22 17 15 20 16 15 13 15 16 18 21 25 22 21 33 38 34 32 35 35 32 31 31 30 20 12 8 4 3 3 5 1 8 15 23 27 28 28 22
27 23 22 22 19 16 19 14 14 15 8 8 15 13 17 25 26 27 29 30 30 31 26 26 28 27 28 28 25 20 16 11 9 9 13 21 24 26 27 29 31 28 24
28 25 23 22 21 14 14 14 11 13 9 14 11 8 6 10 9 17 17 25 22 19 19 20 23 25 25 23 20 18 18 18 22 25 27 29 30 24 28 28 26 17 21
Wind_Direction_850mb
184 181 185 176 173 170 170 175 171 188 172 195 185 213 195 200 183 191 194 209 225 253 261 260 250 278 295 298 250 266 271 253 246 288 310 296 274 259 225 224 226 270 278
175 185 193 192 185 186 192 186 185 204 164 166 211 211 190 213 213 232 194 229 208 226 250 260 261 266 262 267 285 285 279 277 266 280 298 299 300 302 202 228 186 239 235
196 181 199 200 190 195 195 207 192 218 171 185 191 212 163 181 158 199 253 251 204 227 245 284 266 262 276 258 287 295 299 302 269 287 295 306 311 340 58 142 217 205 242
186 200 194 202 204 198 197 208 220 210 202 179 192 191 175 194 211 226 247 234 266 237 233 264 286 295 282 266 280 289 281 268 308 295 283 271 280 305 339 215 218 231 255
192 190 201 195 203 198 199 204 224 225 201 204 188 216 203 223 245 225 252 232 250 275 267 269 280 289 276 274 282 281 287 275 290 298 274 286 296 268 273 289 273 267 336
195 188 186 178 186 191 191 200 216 230 201 208 190 199 214 213 217 227 236 241 270 294 293 277 264 281 297 291 271 277 280 311 247 262 294 291 347 345 337 328 324 309 329
164 155 172 167 179 180 185 197 218 228 216 211 205 210 210 227 224 229 240 246 265 254 262 285 301 299 298 277 269 271 286 251 249 290 248 275 336 329 326 313 319 339 306
153 138 156 171 177 184 189 195 218 225 220 215 218 223 226 235 243 245 250 243 263 283 255 271 260 281 268 274 287 296 76 296 256 265 255 216 44 246 274 306 298 312 278
96 125 153 171 180 188 194 196 217 232 222 217 216 221 229 228 225 231 248 253 247 227 234 240 268 253 262 268 274 202 230 244 241 220 296 220 170 298 245 244 281 279 295
132 148 158 170 180 190 198 198 213 228 222 211 227 224 230 239 226 224 231 247 241 246 235 238 257 265 263 271 278 194 272 265 225 217 247 256 200 222 282 227 229 259 271
131 155 158 163 174 186 197 201 210 218 215 213 218 231 236 236 251 243 224 235 235 243 237 238 254 253 263 267 270 230 238 256 239 211 253 257 227 193 190 223 208 223 243
133 135 135 153 162 178 194 201 210 216 223 227 223 231 237 235 239 252 250 239 247 242 245 244 245 253 260 262 267 249 226 260 242 227 211 238 278 238 226 222 251 245 249
132 135 133 120 147 167 198 204 204 223 232 229 232 236 237 244 244 252 253 243 247 247 251 250 246 251 253 268 266 259 226 244 227 225 239 218 224 248 208 233 233 199 225
114 77 112 113 115 77 142 210 190 234 229 236 237 238 244 245 249 255 251 259 240 248 249 250 245 244 252 258 255 258 245 236 229 217 237 231 229 243 242 252 252 250 244
90 67 66 75 73 52 30 330 272 275 243 277 253 268 252 251 250 250 267 248 246 239 238 312 284 257 248 255 253 247 245 236 216 233 234 239 240 239 249 243 222 233 246
79 76 71 68 66 68 56 63 86 209 228 231 231 240 245 239 245 248 246 257 258 254 227 251 247 257 249 256 250 247 245 242 226 215 236 247 258 257 271 267 252 253 262
95 90 82 75 77 71 95 85 158 202 223 242 267 273 276 287 289 282 289 279 274 268 259 248 246 244 257 266 255 235 237 232 236 226 224 233 261 271 260 271 288 316 288
102 93 85 80 72 69 56 63 68 73 307 306 306 313 320 322 322 324 323 314 310 295 276 263 255 262 279 281 267 243 234 227 222 224 224 228 232 243 251 272 279 322 310
104 99 96 86 80 75 71 65 65 63 57 56 47 28 17 14 1 344 336 327 318 302 282 271 275 279 279 279 263 245 221 223 221 215 214 221 238 245 245 249 251 242 222
106 104 99 93 84 75 73 63 57 49 47 43 51 40 39 10 349 347 341 332 339 336 326 314 298 281 281 280 274 254 226 216 214 220 210 211 236 263 261 278 247 211 154
108 108 103 95 91 81 74 80 64 56 51 61 42 28 36 8 0 18 16 10 2 358 8 359 348 335 311 293 282 213 178 170 173 172 178 172 176 173 221 200 242 240 254
112 107 103 101 101 80 61 70 66 69 52 38 16 11 20 51 18 27 38 44 42 43 47 43 41 45 40 51 148 212 317 228 202 185 145 145 150 125 74 32 347 19 69
120 116 109 96 82 81 77 67 68 60 61 35 29 42 45 69 56 25 42 34 30 39 48 49 52 54 59 64 39 357 10 241 233 215 203 216 214 221 257 249 246 293 300
123 120 119 105 105 102 69 79 72 67 46 65 43 31 62 67 54 56 50 50 59 49 44 44 46 47 49 58 67 61 50 35 79 38 66 6 260 262 279 283 279 280 277
130 132 122 113 105 108 103 80 50 55 97 101 90 50 39 35 21 34 40 36 39 43 40 42 39 37 36 36 41 39 41 30 353 334 315 307 297 292 288 291 287 276 266
132 130 121 116 106 93 82 70 90 90 71 68 56 76 25 83 5 345 17 25 20 20 16 15 11 16 8 3 355 344 334 329 322 308 299 301 299 304 303 300 290 257 260